If you wish to contribute or participate in the discussions about articles you are invited to join SKYbrary as a registered user

 Actions

Kadena Air Base

From SKYbrary Wiki

RODN
Airport
ICAO: RODN – IATA: DNA
Summary
Name Kadena Air Base
Region Asia and Pacific
Territory Japan JP.gif
Location Kadena, Okinawa
Serving Kadena
Elevation 44.501 m
146 ft
146 ft44.501 m
Type large airport
Coordinates 26° 21' 20.20" N, 127° 46' 3.48" E
Runways
Designator Length Width Surface ROPS
05L/23R 3688 m12,099.738 ft
91 m298.556 ft
ASP yes/yes
05R/23L 3688 m12,099.738 ft
61 m200.131 ft
CON yes/yes


METAR
Observation RODN 151156Z AUTO 04005KT 10SM CLR 13/11 A3018 RMK AO2 SLPNO T01310110 10213 20131 50008 $
Station Kadena Ab
Date/Time 15 December 2019 11:56:00
Wind direction 40°
Wind speed 05 kts
Lowest cloud amount n/a
Temperature 13.1°C
Dew point 11°C
Humidity 87%
QNH hPa
Weather condition n/a